星链-1958 (STARLINK-1958 )

导读 | 星芒AI

STARLINK-1958 是 SpaceX Starlink 卫星互联网项目中的一颗低轨通信卫星。它属于 Starlink 群体部署的一部分,旨在为全球用户提供高速互联网服务。该卫星采用现代化设计,具备高效的数据传输能力和自主操作功能。它运行在约 550 公里的轨道高度,与其他 Starlink 卫星协同工作,提升网络覆盖和连接稳定性。该项目致力于改善偏远地区的网络接入,推动全球数字包容性发展。

基本信息
目录编号:
47559
目录名称:
STARLINK-1958
国际标识:
2021-009M
轨道中心:
EARTH
卫星名称:
星链-1958
卫星全名:
星链-1958 (STARLINK-1958 )
卫星状态:
在轨 (已飞行1776 天)
发射日期:
2021-02-04 UTC
国别 :
美国 (US)
星等 :
--
轨道信息
数据来源 国际轨道数据 AOE轨道数据
星历时间 2025-12-16T02:33:50+0800
21小时前
查看轨道信息
2025-12-10T07:00:00+0800
6天前
查看轨道信息
半长轴 6811.134km 6814.956km
偏心率 0.0011222 0.0009571
轨道倾角 53.055° 53.053°
近地点辐角 24.904° 9.487°
升交点赤经 8.026° 35.667°
平近点角 335.250° 52.963°
近地点 425.355km 430.298km
远地点 440.643km 443.344km
周期 93.237分钟 93.316分钟
每日圈数 15.444493 15.431504
详细信息
固有亮度:
5
最大亮度:
2.5
卫星平台:
Starlink V1.0
覆盖范围:
全球
运营商:
太空探索技术公司
运营商所在国:
美国
制造商(研发单位):
太空探索技术公司
制造商所在国:
美国
使用方式:
暂无
卫星简介
星链(Starlink)计划是由太空探索技术公司(SpaceX)提出的一个巨型低轨卫星互联网星座项目,计划在2019年至2024年间在太空搭建由约1.2万颗卫星组成的“星链”网络,其中1584颗将部署在地球上空550千米处的近地轨道,并从2020年开始工作。该卫星仍在工作。
2D轨道图
3D轨道图
轨道高度分析图
轨道倾角分析图
轨道综合分析图
查看轨道综合分析图